Location: �perlecques
(50.8057°N, 2.1521°E)
Time: 18:52:22
(UTC+00:00)

COSMOS 2428 - Pass Details

Date: 09 April 2020
Orbit: 846 x 856 km, 70.9° (Epoch: 03 June)

Event Time Altitude Azimuth Distance (km) Brightness Sun altitude
Rises 22:54:06 0° 331° (NNW) 3,427 7.0 -29.8°
Reaches altitude 10° 22:57:03 10° 345° (NNW) 2,486 6.1 -29.9°
Maximum altitude 23:01:40 25° 39° (NE) 1,668 4.5 -30.1°
Enters shadow 23:03:41 20° 70° (ENE) 1,848 4.5 -30.2°
